Flight Information

DEPARTURE
SAN FRANCISCO, CA
Elevation:
13
Runways:
1R/19L - 8650x200 - ASPH-G
1L/19R - 7650x200 - ASPH-G
10R/28L - 11381x200 - ASPH-G
10L/28R - 11870x200 - ASPH-G
Active PE Departure:
1R - 1L
Current PE ATIS:
E
Altimeter:
30.05
Remarks:
V F R DEPARTURES CONTACT CLEARANCE DELIVERY, ADVISE ON COURSE HEADING, ALTITUDE, AND IF FLIGHT FOLLOWING IS REQUESTED.
ATIS:
118.85 650-877-3585
Clearance Delivery:
118.2
Ground:
121.8
Tower:
120.5
DESTINATION
,
Elevation:
TPA:
1000 (est.)


6905.5 NM69° True-15° Var53° HDG

Flight Plan:
(click to file on line)

1. Type
2. Aircraft Identification
3. Aircraft Type / Special Equipment
4. True Airspeed
kts
5. Departure Airport
(ICAO code)
6. Arriving Airport
(ICAO code)
7. Cruising Altitude
ft
8. Alternate Airport
(ICAO code)
9. Route of Flight
10. Remarks


00:00:00 Departure ATIS: Destination ATIS:

Clearance Limit:
Route:
Altitude: Expect in minutes
Frequency:
Transponder: (7500 Hijack / 7600 Lost Comms / 7700 Emergency)


KSFO 042356Z 21006KT 10SM FEW017 SCT050 SCT200 14/08 A3008 RMK AO2 SLP185 T01440083 10156 20128 56001
Time: 2022-12-04T23:56:00Z
1670651352
Winds: 210 @ 6 kts
Visibility: 10.0 sm
Clouds (AGL): FEW 1700
SCT 5000
SCT 20000
Temperature: 14.4 C
Dew Point: 8.3 C
Pressure: 30.079725 in Hgbr


Notes:

Data extracted from FAA Digital Chart Supplement. Effective: 0901Z Thursday, 27 JAN 2022 to 0900z Thursday, 24 MAR 2022
Current ATIS data is provided courtisy of PilotEdge.